380  
ASUS43 KARX 230110  
RWRARX  
 
HOURLY WEATHER FOR THE UPPER MISSISSIPPI RIVER VALLEY  
NATIONAL WEATHER SERVICE LA CROSSE WI  
800 PM CDT FRI OCT 22 2021  
 
NOTE: "FAIR" INDICATES FEW OR NO CLOUDS BELOW 12,000 FEET WITH NO  
SIGNIFICANT WEATER AND/OR S TO VISIBILITY
.  
 
MNZ077-085>088-093>096-230200  
SOUTHEAST MINNESOTA  
 
CITY SKY/WX TMP DP RH WIND PRES REMARKS
 
ROCHESTER CLEAR 41 27 57 NW3 30.04R  
WINONA CLEAR 37 32 81 CALM 30.05S  
AUSTIN CLEAR 39 32 75 CALM 30.04S  
ALBERT LEA CLEAR 37 34 87 CALM 30.05R  
DODGE CENTER N/A 39 27 60 CALM 30.04R  
PRESTON CLEAR 38 29 71 NW3 30.04S  
OWATONNA CLEAR 34 30 86 CALM 30.05R  
FARIBAULT CLEAR 36 32 87 CALM 30.05R  

 
 
WIZ041-042-053>056-061-230200  
SOUTHWEST WISCONSIN  
 
CITY SKY/WX TMP DP RH WIND PRES REMARKS
 
LA CROSSE PTCLDY 42 33 70 CALM 30.04R  
SPARTA PTCLDY 31 30 96 CALM 30.05S  
VIROQUA CLEAR 37 32 84 CALM 30.02S  
WIS DELLS CLOUDY 41 34 74 CALM 30.03F  
PRAIRIE DU CHI MOCLDY 43 34 71 CALM 30.04S  
BOSCOBEL CLOUDY 43 37 79 CALM 30.04R  
LONE ROCK MOCLDY 39 35 86 CALM 30.03S  
PLATTEVILLE MOCLDY 42 36 79 CALM 30.03S  

 
 
WIZ017-030-034>036-043>045-230200  
CENTRAL WISCONSIN  
 
CITY SKY/WX TMP DP RH WIND PRES REMARKS
 
MEDFORD CLOUDY 37 29 74 N3 30.03S  
WAUSAU CLOUDY 44 30 57 N5 30.02R  
BLACK RVR FLS CLOUDY 37 34 88 CALM 30.03S  
WIS RAPIDS CLOUDY 44 33 65 NW3 30.04R  
MARSHFIELD CLOUDY 42 31 64 N5 30.02S  
MAUSTON MOCLDY 39 35 84 CALM 30.02F  
CAMP DOUGLAS MOCLDY 36 30 78 CALM 30.02S  
WAUTOMA CLOUDY 42 38 85 CALM 30.04S  

 
 
IAZ008>011-017>019-029-030-230200  
NORTHEAST IOWA  
 
CITY SKY/WX TMP DP RH WIND PRES REMARKS
 
WATERLOO CLEAR 39 34 82 SW5 30.04R  
DUBUQUE CLEAR 38 32 79 CALM 30.03S  
DECORAH CLOUDY 43 32 65 CALM 30.01F  
MASON CITY CLEAR 34 29 82 CALM 30.05R  
CHARLES CITY PTCLDY 41 30 65 CALM 30.04R  
OELWEIN CLEAR 37 32 81 SW5 30.04S WCI 34  

 
 
WIND SPEEDS ARE IN MILES PER HOUR.  
 
ABBREVIATIONS USED IN THE REMARKS:  
VSB - VISIBILITY IN STATUTE MILES  
WCI - WIND CHILL INDEX  
HX - HEAT INDEX  
 
 
CLICK HERE TO GO TO PREVIOUS BULLETINS.

The Nexlab WI Page
The Nexlab IA Page
The Nexlab MN Page Main Text Page